Hauptseite
METAR-TAF:

METAR-TAF

Flughäfen :

Flugplatz Padua

Padua, Italien

Breite: 45-23-45N, Länge: 11-50-53E, Höhe: 13 m

Beobachtung

Neuester Wetterbericht von vor 14 Stunden und 29 Minuten, um 07:00 UTC
Wind 1 kt aus unterschiedlichen Richtungen, variierte zwischen Nordwest und Nordost
Temperatur -4°C
Luftfeuchtigkeit 93%
Luftdruck 1020 hPa
Sichtweite 10 km oder mehr
keine Wolken unter 1500 m und keine Kumulonimbus oder Gewitterwolken

METAR: LIPU 150700Z VRB01KT 310V050 CAVOK M04/M05 Q1020

Zeit: 22:29 (21:29 UTC)


TAF: fehlend

Wetterbeobachtungen und Prognosen von mehr als 4000 Flughäfen (METAR und TAF Bericht).

Die verfügbaren Stationen werden durch gelbe und rote Markierungen auf der Karte dargestellt.

Führen Sie die Maus auf sie, um den Namen der Station zu sehen.

Darauf klicken, um die Beobachtung von Wetterbeobachtungen und Prognosen zu sehen.

Um die Karte zu ändern : klicken Sie auf den grünen Tasten mit einem schwarzen Kreuz Zum Vergrößern, auf den grünen Button mit einem Gedankenstrich zu verkleinern, oder auf die grünen Pfeile für benachbarte Karten.


METAR-TAF: